FIN18 EFHK-ENGM

Flight info

Callsign FIN18
Flight time N/A
Altitude 38000
Route ADIVO4N/22R ADIVO Y365 POGOK DCT POKAS DCT EBURI N623 ESEBA
Aircraft A320/M-SDE3FGHIRWY/LB1

Departure

Time N/A
Airport Helsinki Vantaa Airport (EFHK)

Arrival

Time 2026-05-03 20:28
Airport Oslo-Gardermoen International Airport (ENGM)
Time Latitude Longitude Altitude Speed Heading
2026-05-03 20:15 60.21621 12.03591 11727 ft 291 kts 314°
2026-05-03 20:15 60.23135 12.00956 11540 ft 282 kts 314°
2026-05-03 20:15 60.24624 11.98471 11405 ft 275 kts 322°
2026-05-03 20:15 60.26399 11.96986 11087 ft 282 kts 346°
2026-05-03 20:16 60.28351 11.97028 10734 ft 287 kts
2026-05-03 20:16 60.30319 11.97019 10361 ft 278 kts 342°
2026-05-03 20:16 60.32030 11.95359 9864 ft 273 kts 315°
2026-05-03 20:16 60.33188 11.92375 9394 ft 269 kts 298°
2026-05-03 20:17 60.34080 11.89118 8973 ft 268 kts 296°
2026-05-03 20:17 60.34955 11.85782 8532 ft 267 kts 296°
2026-05-03 20:17 60.35818 11.82461 8125 ft 266 kts 296°
2026-05-03 20:17 60.36669 11.79162 7705 ft 262 kts 295°
2026-05-03 20:18 60.37499 11.75935 7294 ft 256 kts 296°
2026-05-03 20:18 60.38310 11.72761 6889 ft 251 kts 295°
2026-05-03 20:18 60.39096 11.69659 6534 ft 244 kts 295°
2026-05-03 20:18 60.39858 11.66646 6223 ft 236 kts 295°
2026-05-03 20:19 60.40587 11.63751 6013 ft 227 kts 295°
2026-05-03 20:19 60.41194 11.60872 5828 ft 225 kts 287°
2026-05-03 20:19 60.41668 11.57860 5651 ft 224 kts 285°
2026-05-03 20:19 60.42126 11.54846 5477 ft 224 kts 285°
2026-05-03 20:20 60.42581 11.51821 5334 ft 224 kts 285°
2026-05-03 20:20 60.43050 11.48797 5172 ft 225 kts 285°
2026-05-03 20:20 60.43541 11.45772 5021 ft 226 kts 285°
2026-05-03 20:20 60.44033 11.42745 4868 ft 226 kts 285°
2026-05-03 20:21 60.44520 11.39757 4717 ft 225 kts 285°
2026-05-03 20:21 60.44780 11.36657 4558 ft 222 kts 268°
2026-05-03 20:21 60.44765 11.33525 4401 ft 222 kts 265°
2026-05-03 20:21 60.44716 11.30402 4240 ft 221 kts 265°
2026-05-03 20:22 60.44634 11.27328 4100 ft 219 kts 256°
2026-05-03 20:22 60.44099 11.24470 4006 ft 216 kts 236°
2026-05-03 20:22 60.43094 11.22236 4001 ft 215 kts 216°
2026-05-03 20:22 60.41793 11.20908 3998 ft 206 kts 197°
2026-05-03 20:23 60.40456 11.20134 4004 ft 197 kts 198°
2026-05-03 20:23 60.39141 11.19363 4006 ft 196 kts 198°
2026-05-03 20:23 60.37850 11.18608 3969 ft 187 kts 198°
2026-05-03 20:23 60.36633 11.17898 3830 ft 178 kts 198°
2026-05-03 20:24 60.35449 11.17207 3594 ft 175 kts 198°
2026-05-03 20:24 60.34301 11.16537 3357 ft 172 kts 197°
2026-05-03 20:24 60.33157 11.15870 3130 ft 170 kts 197°
2026-05-03 20:24 60.32021 11.15209 2896 ft 169 kts 197°
2026-05-03 20:25 60.30897 11.14555 2666 ft 166 kts 196°
2026-05-03 20:25 60.29819 11.13929 2443 ft 155 kts 196°
2026-05-03 20:25 60.28799 11.13336 2234 ft 150 kts 196°
2026-05-03 20:25 60.27811 11.12763 2021 ft 145 kts 196°
2026-05-03 20:26 60.26885 11.12225 1824 ft 135 kts 196°
2026-05-03 20:26 60.25997 11.11710 1658 ft 131 kts 196°
2026-05-03 20:26 60.25119 11.11201 1461 ft 131 kts 195°
2026-05-03 20:26 60.24242 11.10696 1255 ft 130 kts 194°
2026-05-03 20:27 60.23377 11.10195 1079 ft 130 kts 193°
2026-05-03 20:27 60.22512 11.09695 894 ft 129 kts 194°
2026-05-03 20:27 60.21656 11.09199 719 ft 127 kts 194°
2026-05-03 20:27 60.20896 11.08760 680 ft 80 kts 197°
2026-05-03 20:28 60.20533 11.08548 678 ft 45 kts 195°
2026-05-03 20:28 60.20350 11.08440 677 ft 16 kts 196°
2026-05-03 20:28 60.20265 11.08518 675 ft 15 kts 113°
2026-05-03 20:28 60.20240 11.08687 678 ft 10 kts 106°
2026-05-03 20:29 60.20226 11.08784 677 ft 7 kts 107°
2026-05-03 20:29 60.20199 11.08948 681 ft 15 kts 110°
2026-05-03 20:29 60.20167 11.09167 679 ft 17 kts 105°
2026-05-03 20:29 60.20132 11.09409 682 ft 19 kts 106°
2026-05-03 20:30 60.20096 11.09666 680 ft 20 kts 106°
2026-05-03 20:30 60.20058 11.09931 685 ft 20 kts 106°
2026-05-03 20:30 60.20018 11.10207 686 ft 21 kts 106°
2026-05-03 20:30 60.19976 11.10498 682 ft 20 kts 106°
2026-05-03 20:31 60.19936 11.10782 682 ft 21 kts 105°
2026-05-03 20:31 60.19894 11.11071 680 ft 23 kts 106°
2026-05-03 20:31 60.19851 11.11377 679 ft 21 kts 105°
2026-05-03 20:31 60.19822 11.11577 680 ft 11 kts 106°
2026-05-03 20:32 60.19801 11.11653 683 ft 5 kts 153°
2026-05-03 20:32 60.19733 11.11630 684 ft 15 kts 196°
2026-05-03 20:32 60.19623 11.11568 683 ft 18 kts 195°
2026-05-03 20:32 60.19495 11.11493 682 ft 20 kts 196°
2026-05-03 20:33 60.19353 11.11411 682 ft 22 kts 196°
2026-05-03 20:33 60.19211 11.11329 683 ft 16 kts 195°
2026-05-03 20:33 60.19152 11.11259 682 ft 10 kts 249°
2026-05-03 20:33 60.19161 11.11150 684 ft 6 kts 286°
2026-05-03 20:34 60.19174 11.11063 685 ft 11 kts 285°
2026-05-03 20:34 60.19197 11.10900 682 ft 12 kts 286°
2026-05-03 20:34 60.19218 11.10752 685 ft 10 kts 285°
2026-05-03 20:34 60.19237 11.10621 683 ft 9 kts 286°
2026-05-03 20:35 60.19253 11.10505 685 ft 8 kts 286°
2026-05-03 20:35 60.19292 11.10483 682 ft 6 kts 16°
2026-05-03 20:35 60.19314 11.10496 685 ft 0 kts 15°